ROBUSTA-3A (MEDITERRAN*)

Last updated on Wed Oct 29 2025 00:03:53 GMT+0000 (Coordinated Universal Time)

1 60243U 24128J 25301.56721164 .00009993 00000+0 65201-3 0 9991 2 60243 61.9880 304.7293 0056725 81.0203 279.7305 15.07080389 71457
UTC large
Height (km)
Speed (km/s)
/
Latitude / Longitude
Inclination (degrees)
Orbital Period (minutes)
Azimuth
Elevation
Range (km)
Doppler Factor

Next 0 passes for location: London (51.5072 / 0.1276)

Sorry there are no passes over London.